When you browse on this site, cookies collect data to enhance your experience and personalize the content and advertising you see.
Visit our Privacy Policy to learn more. By continuing to use the site, you agree to this use of cookies and data.
  • In Schweiz
  • Länderverzeichnis
  • Für 7 Tage
  • Wassertemperatur
  • Satellitenkarten
  • Wetterkarte
  • Widgets
  • user-avatar
    Anmelden

    Stündliche Wetter Mombasa

    Heute, 21 März, Donnerstag

    Zeit Temperatur Niederschläge Wind Luftdruck Luftfeuchtigkeit
    00:00 +28°C° 0 mm 4 m/S 757 mmHg 84%
    01:00 +28°C° 0 mm 3 m/S 757 mmHg 85%
    02:00 +28°C° 0 mm 3 m/S 757 mmHg 86%
    03:00 +27°C° 0 mm 2 m/S 757 mmHg 87%
    04:00 +27°C° 0 mm 2 m/S 757 mmHg 88%
    05:00 +27°C° 0 mm 2 m/S 757 mmHg 89%
    06:00 +27°C° 0 mm 1 m/S 757 mmHg 90%
    07:00 +28°C° 0 mm 1 m/S 758 mmHg 82%
    08:00 +30°C° 0 mm 1 m/S 758 mmHg 75%
    09:00 +31°C° 0 mm 1 m/S 759 mmHg 67%
    10:00 +32°C° 0 mm 2 m/S 758 mmHg 61%
    11:00 +35°C° 0 mm 3 m/S 758 mmHg 55%
    12:00 +36°C° 0 mm 3 m/S 758 mmHg 49%
    13:00 +36°C° 0 mm 4 m/S 757 mmHg 48%
    14:00 +37°C° 0 mm 5 m/S 757 mmHg 48%
    15:00 +38°C° 0 mm 6 m/S 756 mmHg 48%
    16:00 +35°C° 0 mm 6 m/S 756 mmHg 54%
    17:00 +34°C° 0 mm 6 m/S 755 mmHg 60%
    18:00 +32°C° 0 mm 6 m/S 755 mmHg 67%
    19:00 +30°C° 0 mm 6 m/S 756 mmHg 71%
    20:00 +30°C° 0 mm 5 m/S 756 mmHg 75%
    21:00 +29°C° 0 mm 5 m/S 757 mmHg 80%
    22:00 +29°C° 0 mm 4 m/S 757 mmHg 82%
    23:00 +28°C° 0 mm 4 m/S 757 mmHg 85%

    Morgen, 22 März, Freitag

    Zeit Temperatur Niederschläge Wind Luftdruck Luftfeuchtigkeit
    00:00 +28°C° 0 mm 3 m/S 757 mmHg 88%
    01:00 +28°C° 0 mm 2 m/S 757 mmHg 89%
    02:00 +27°C° 0 mm 1 m/S 757 mmHg 90%
    03:00 +27°C° 0 mm 1 m/S 757 mmHg 91%
    04:00 +27°C° 0 mm 1 m/S 757 mmHg 92%
    05:00 +25°C° 0 mm 0 m/S 757 mmHg 93%
    06:00 +24°C° 0 mm 0 m/S 757 mmHg 93%
    07:00 +28°C° 0 mm 1 m/S 758 mmHg 85%
    08:00 +30°C° 0 mm 1 m/S 758 mmHg 77%
    09:00 +31°C° 0 mm 2 m/S 759 mmHg 69%
    10:00 +32°C° 0 mm 2 m/S 759 mmHg 65%
    11:00 +34°C° 0 mm 3 m/S 759 mmHg 61%
    12:00 +34°C° 0 mm 3 m/S 758 mmHg 57%
    13:00 +35°C° 0 mm 4 m/S 758 mmHg 54%
    14:00 +36°C° 0 mm 4 m/S 757 mmHg 51%
    15:00 +37°C° 0 mm 5 m/S 756 mmHg 48%
    16:00 +35°C° 0 mm 5 m/S 756 mmHg 55%
    17:00 +34°C° 0 mm 5 m/S 756 mmHg 62%
    18:00 +32°C° 0 mm 5 m/S 756 mmHg 69%
    19:00 +30°C° 0 mm 5 m/S 756 mmHg 73%
    20:00 +29°C° 0 mm 4 m/S 757 mmHg 77%
    21:00 +29°C° 0 mm 4 m/S 758 mmHg 81%
    22:00 +28°C° 0 mm 3 m/S 758 mmHg 83%
    23:00 +28°C° 0 mm 3 m/S 759 mmHg 85%

    übermorgen, 23 März, Samstag

    Zeit Temperatur Niederschläge Wind Luftdruck Luftfeuchtigkeit
    00:00 +28°C° 0 mm 3 m/S 759 mmHg 86%
    01:00 +28°C° 0 mm 2 m/S 758 mmHg 88%
    02:00 +27°C° 0 mm 1 m/S 758 mmHg 89%
    03:00 +27°C° 0 mm 1 m/S 757 mmHg 90%
    04:00 +27°C° 0 mm 1 m/S 757 mmHg 91%
    05:00 +27°C° 0 mm 1 m/S 757 mmHg 92%
    06:00 +24°C° 0 mm 0 m/S 758 mmHg 93%
    07:00 +26°C° 0 mm 0 m/S 758 mmHg 84%
    08:00 +30°C° 0 mm 1 m/S 759 mmHg 74%
    09:00 +32°C° 0 mm 1 m/S 759 mmHg 65%
    10:00 +34°C° 0 mm 2 m/S 759 mmHg 59%
    11:00 +36°C° 0 mm 2 m/S 759 mmHg 52%
    12:00 +37°C° 0 mm 3 m/S 758 mmHg 46%
    13:00 +37°C° 0 mm 4 m/S 757 mmHg 48%
    14:00 +37°C° 0 mm 5 m/S 757 mmHg 50%
    15:00 +36°C° 0 mm 6 m/S 756 mmHg 51%
    16:00 +35°C° 0 mm 5 m/S 756 mmHg 57%
    17:00 +33°C° 0 mm 5 m/S 756 mmHg 62%
    18:00 +32°C° 0 mm 5 m/S 756 mmHg 67%
    19:00 +30°C° 0 mm 5 m/S 756 mmHg 71%
    20:00 +29°C° 0 mm 4 m/S 757 mmHg 76%
    21:00 +29°C° 0 mm 4 m/S 757 mmHg 80%
    22:00 +28°C° 0 mm 3 m/S 758 mmHg 82%
    23:00 +28°C° 0 mm 2 m/S 758 mmHg 84%

    24 März, Sonntag

    Zeit Temperatur Niederschläge Wind Luftdruck Luftfeuchtigkeit
    00:00 +28°C° 0 mm 2 m/S 758 mmHg 85%
    01:00 +27°C° 0 mm 2 m/S 758 mmHg 87%
    02:00 +27°C° 0 mm 1 m/S 757 mmHg 88%
    03:00 +27°C° 0 mm 1 m/S 757 mmHg 90%
    04:00 +26°C° 0 mm 1 m/S 757 mmHg 91%
    05:00 +26°C° 0 mm 1 m/S 757 mmHg 92%
    06:00 +26°C° 0 mm 1 m/S 757 mmHg 93%
    07:00 +28°C° 0 mm 1 m/S 758 mmHg 84%
    08:00 +30°C° 0 mm 1 m/S 758 mmHg 74%
    09:00 +30°C° 0 mm 0 m/S 759 mmHg 65%
    10:00 +33°C° 0 mm 1 m/S 758 mmHg 58%
    11:00 +36°C° 0 mm 2 m/S 758 mmHg 51%
    12:00 +37°C° 0 mm 3 m/S 757 mmHg 44%
    13:00 +37°C° 0 mm 4 m/S 756 mmHg 45%
    14:00 +37°C° 0 mm 5 m/S 755 mmHg 47%
    15:00 +36°C° 0 mm 6 m/S 754 mmHg 49%
    16:00 +35°C° 0 mm 5 m/S 754 mmHg 54%
    17:00 +33°C° 0 mm 5 m/S 754 mmHg 59%
    18:00 +32°C° 0 mm 5 m/S 754 mmHg 64%
    19:00 +30°C° 0 mm 5 m/S 755 mmHg 69%
    20:00 +29°C° 0 mm 4 m/S 756 mmHg 75%
    21:00 +28°C° 0 mm 4 m/S 756 mmHg 80%
    22:00 +28°C° 0 mm 3 m/S 757 mmHg 81%
    23:00 +28°C° 0 mm 3 m/S 757 mmHg 83%

    25 März, Montag

    Zeit Temperatur Niederschläge Wind Luftdruck Luftfeuchtigkeit
    00:00 +28°C° 0 mm 2 m/S 757 mmHg 84%
    01:00 +27°C° 0 mm 2 m/S 756 mmHg 86%
    02:00 +27°C° 0 mm 1 m/S 756 mmHg 87%
    03:00 +26°C° 0 mm 1 m/S 755 mmHg 89%
    04:00 +26°C° 0 mm 1 m/S 756 mmHg 90%
    05:00 +26°C° 0 mm 1 m/S 756 mmHg 91%
    06:00 +26°C° 0 mm 1 m/S 757 mmHg 92%
    07:00 +28°C° 0 mm 1 m/S 757 mmHg 82%
    08:00 +30°C° 0 mm 1 m/S 758 mmHg 73%
    09:00 +32°C° 0 mm 1 m/S 758 mmHg 63%
    10:00 +34°C° 0 mm 2 m/S 758 mmHg 57%
    11:00 +36°C° 0 mm 3 m/S 757 mmHg 50%
    12:00 +37°C° 0 mm 3 m/S 757 mmHg 44%
    13:00 +37°C° 0 mm 4 m/S 756 mmHg 46%
    14:00 +37°C° 0 mm 5 m/S 755 mmHg 49%
    15:00 +38°C° 0 mm 6 m/S 754 mmHg 51%
    16:00 +35°C° 0 mm 5 m/S 754 mmHg 56%
    17:00 +34°C° 0 mm 5 m/S 755 mmHg 60%
    18:00 +32°C° 0 mm 5 m/S 755 mmHg 65%
    19:00 +30°C° 0 mm 5 m/S 755 mmHg 70%
    20:00 +30°C° 0 mm 4 m/S 756 mmHg 75%
    21:00 +29°C° 0 mm 4 m/S 757 mmHg 80%
    22:00 +28°C° 0 mm 3 m/S 757 mmHg 82%
    23:00 +28°C° 0 mm 3 m/S 757 mmHg 84%

    26 März, Dienstag

    Zeit Temperatur Niederschläge Wind Luftdruck Luftfeuchtigkeit
    00:00 +28°C° 0 mm 2 m/S 757 mmHg 86%
    01:00 +27°C° 0 mm 2 m/S 757 mmHg 87%
    02:00 +27°C° 0 mm 1 m/S 756 mmHg 88%
    03:00 +27°C° 0 mm 1 m/S 756 mmHg 90%
    04:00 +27°C° 0 mm 1 m/S 756 mmHg 87%
    05:00 +28°C° 0 mm 1 m/S 757 mmHg 85%
    06:00 +28°C° 0 mm 1 m/S 757 mmHg 83%
    07:00 +27°C° 0 mm 0 m/S 758 mmHg 76%
    08:00 +29°C° 0 mm 0 m/S 759 mmHg 69%
    09:00 +30°C° 0 mm 0 m/S 759 mmHg 62%
    10:00 +34°C° 0 mm 1 m/S 759 mmHg 56%
    11:00 +36°C° 0 mm 2 m/S 758 mmHg 51%
    12:00 +38°C° 0 mm 3 m/S 758 mmHg 45%
    13:00 +38°C° 0 mm 4 m/S 757 mmHg 46%
    14:00 +39°C° 0 mm 5 m/S 756 mmHg 47%
    15:00 +38°C° 0 mm 6 m/S 755 mmHg 49%
    16:00 +36°C° 0 mm 6 m/S 756 mmHg 55%
    17:00 +34°C° 0 mm 6 m/S 756 mmHg 62%
    18:00 +32°C° 0 mm 6 m/S 756 mmHg 68%
    19:00 +32°C° 0 mm 5 m/S 757 mmHg 73%
    20:00 +30°C° 0 mm 5 m/S 758 mmHg 77%
    21:00 +29°C° 0 mm 5 m/S 758 mmHg 82%
    22:00 +29°C° 0 mm 4 m/S 758 mmHg 84%
    23:00 +28°C° 0 mm 3 m/S 758 mmHg 87%
    Mehr zeigen